When you browse on this site, cookies collect data to enhance your experience and personalize the content and advertising you see.
Visit our Privacy Policy to learn more. By continuing to use the site, you agree to this use of cookies and data.
  • In Lithuania
  • List of Countries
  • For 7 days
  • Water Temperature
  • Satellite Maps
  • Weather Map
  • Weather Widgets
  • user-avatar
    Login

    Hourly Weather Coro

    Today, 18 November, Sunday

    Time Temperature Precipitation Wind Pressure Humidity
    00:00 +28°C° 0 mm 6 mps 755 mmHg 85%
    01:00 +28°C° 0 mm 6 mps 754 mmHg 86%
    02:00 +28°C° 0.1 mm 6 mps 754 mmHg 86%
    03:00 +28°C° 0.1 mm 6 mps 754 mmHg 87%
    04:00 +27°C° 0.1 mm 6 mps 754 mmHg 87%
    05:00 +28°C° 0.1 mm 6 mps 754 mmHg 86%
    06:00 +28°C° 0.1 mm 6 mps 754 mmHg 84%
    07:00 +28°C° 0.1 mm 7 mps 755 mmHg 82%
    08:00 +30°C° 0.1 mm 7 mps 755 mmHg 74%
    09:00 +33°C° 0.1 mm 7 mps 755 mmHg 65%
    10:00 +35°C° 0.1 mm 7 mps 756 mmHg 56%
    11:00 +35°C° 0 mm 7 mps 755 mmHg 54%
    12:00 +36°C° 0 mm 7 mps 754 mmHg 51%
    13:00 +38°C° 0 mm 8 mps 754 mmHg 49%
    14:00 +37°C° 0 mm 8 mps 753 mmHg 53%
    15:00 +35°C° 0 mm 8 mps 753 mmHg 57%
    16:00 +34°C° 0 mm 8 mps 753 mmHg 60%
    17:00 +32°C° 0 mm 7 mps 753 mmHg 67%
    18:00 +30°C° 0 mm 7 mps 754 mmHg 74%
    19:00 +28°C° 0 mm 7 mps 754 mmHg 81%
    20:00 +28°C° 0 mm 7 mps 755 mmHg 82%
    21:00 +28°C° 0 mm 7 mps 755 mmHg 83%
    22:00 +28°C° 0 mm 7 mps 755 mmHg 84%
    23:00 +28°C° 0.1 mm 6 mps 755 mmHg 84%

    Tomorrow, 19 November, Monday

    Time Temperature Precipitation Wind Pressure Humidity
    00:00 +28°C° 0.1 mm 6 mps 755 mmHg 85%
    01:00 +28°C° 0.1 mm 6 mps 755 mmHg 86%
    02:00 +28°C° 0.1 mm 6 mps 754 mmHg 86%
    03:00 +27°C° 0.1 mm 6 mps 754 mmHg 87%
    04:00 +27°C° 0.1 mm 5 mps 754 mmHg 87%
    05:00 +28°C° 0.1 mm 6 mps 755 mmHg 85%
    06:00 +28°C° 0.1 mm 6 mps 755 mmHg 83%
    07:00 +29°C° 0.1 mm 6 mps 755 mmHg 81%
    08:00 +30°C° 0.2 mm 6 mps 756 mmHg 75%
    09:00 +32°C° 0.2 mm 6 mps 756 mmHg 69%
    10:00 +34°C° 0.2 mm 6 mps 756 mmHg 62%
    11:00 +34°C° 0.1 mm 7 mps 755 mmHg 60%
    12:00 +35°C° 0.1 mm 7 mps 755 mmHg 57%
    13:00 +35°C° 0.1 mm 7 mps 754 mmHg 55%
    14:00 +35°C° 0 mm 7 mps 753 mmHg 58%
    15:00 +34°C° 0 mm 7 mps 753 mmHg 60%
    16:00 +33°C° 0 mm 7 mps 753 mmHg 63%
    17:00 +32°C° 0 mm 7 mps 753 mmHg 69%
    18:00 +30°C° 0 mm 6 mps 754 mmHg 76%
    19:00 +28°C° 0 mm 6 mps 754 mmHg 82%
    20:00 +28°C° 0 mm 6 mps 755 mmHg 84%
    21:00 +28°C° 0 mm 6 mps 755 mmHg 86%
    22:00 +27°C° 0 mm 6 mps 755 mmHg 87%
    23:00 +27°C° 0.1 mm 6 mps 755 mmHg 88%

    Day after tomorrow, 20 November, Tuesday

    Time Temperature Precipitation Wind Pressure Humidity
    00:00 +27°C° 0.1 mm 5 mps 755 mmHg 88%
    01:00 +27°C° 0.1 mm 5 mps 755 mmHg 89%
    02:00 +27°C° 0.1 mm 5 mps 754 mmHg 89%
    03:00 +27°C° 0.1 mm 5 mps 754 mmHg 89%
    04:00 +27°C° 0.1 mm 5 mps 754 mmHg 89%
    05:00 +28°C° 0.1 mm 5 mps 754 mmHg 88%
    06:00 +28°C° 0.1 mm 6 mps 755 mmHg 86%
    07:00 +28°C° 0.1 mm 6 mps 755 mmHg 84%
    08:00 +30°C° 0.1 mm 6 mps 756 mmHg 76%
    09:00 +33°C° 0.1 mm 6 mps 756 mmHg 68%
    10:00 +34°C° 0.1 mm 6 mps 756 mmHg 60%
    11:00 +35°C° 0 mm 6 mps 755 mmHg 57%
    12:00 +36°C° 0 mm 7 mps 754 mmHg 54%
    13:00 +36°C° 0 mm 7 mps 754 mmHg 50%
    14:00 +36°C° 0 mm 7 mps 753 mmHg 53%
    15:00 +35°C° 0 mm 7 mps 753 mmHg 56%
    16:00 +34°C° 0 mm 7 mps 753 mmHg 58%
    17:00 +33°C° 0 mm 7 mps 753 mmHg 66%
    18:00 +30°C° 0 mm 7 mps 754 mmHg 74%
    19:00 +29°C° 0 mm 7 mps 755 mmHg 82%
    20:00 +28°C° 0 mm 6 mps 755 mmHg 83%
    21:00 +28°C° 0 mm 6 mps 755 mmHg 85%
    22:00 +28°C° 0 mm 6 mps 756 mmHg 87%
    23:00 +27°C° 0 mm 6 mps 756 mmHg 87%

    21 November, Wednesday

    Time Temperature Precipitation Wind Pressure Humidity
    00:00 +27°C° 0 mm 6 mps 755 mmHg 88%
    01:00 +27°C° 0 mm 6 mps 755 mmHg 88%
    02:00 +27°C° 0 mm 5 mps 755 mmHg 89%
    03:00 +27°C° 0 mm 5 mps 755 mmHg 89%
    04:00 +27°C° 0 mm 5 mps 755 mmHg 90%
    05:00 +27°C° 0 mm 5 mps 755 mmHg 87%
    06:00 +28°C° 0 mm 5 mps 756 mmHg 85%
    07:00 +28°C° 0 mm 5 mps 756 mmHg 82%
    08:00 +30°C° 0 mm 5 mps 756 mmHg 74%
    09:00 +33°C° 0 mm 5 mps 757 mmHg 67%
    10:00 +34°C° 0 mm 6 mps 757 mmHg 59%
    11:00 +35°C° 0 mm 6 mps 756 mmHg 54%
    12:00 +36°C° 0 mm 6 mps 755 mmHg 50%
    13:00 +38°C° 0 mm 6 mps 754 mmHg 46%
    14:00 +36°C° 0 mm 6 mps 754 mmHg 49%
    15:00 +35°C° 0 mm 7 mps 754 mmHg 52%
    16:00 +34°C° 0 mm 7 mps 753 mmHg 55%
    17:00 +33°C° 0 mm 6 mps 754 mmHg 65%
    18:00 +30°C° 0 mm 6 mps 754 mmHg 75%
    19:00 +28°C° 0 mm 6 mps 755 mmHg 84%
    20:00 +28°C° 0.1 mm 5 mps 755 mmHg 86%
    21:00 +28°C° 0.1 mm 5 mps 755 mmHg 87%
    22:00 +27°C° 0.1 mm 5 mps 756 mmHg 88%
    23:00 +27°C° 0.2 mm 5 mps 755 mmHg 89%

    22 November, Thursday

    Time Temperature Precipitation Wind Pressure Humidity
    00:00 +27°C° 0.2 mm 5 mps 755 mmHg 89%
    01:00 +27°C° 0.2 mm 4 mps 755 mmHg 90%
    02:00 +27°C° 0.1 mm 4 mps 755 mmHg 90%
    03:00 +27°C° 0.1 mm 4 mps 755 mmHg 90%
    04:00 +27°C° 0.1 mm 4 mps 755 mmHg 90%
    05:00 +27°C° 0.1 mm 4 mps 755 mmHg 89%
    06:00 +27°C° 0.1 mm 4 mps 756 mmHg 87%
    07:00 +28°C° 0.1 mm 4 mps 756 mmHg 85%
    08:00 +30°C° 0.1 mm 4 mps 756 mmHg 76%
    09:00 +32°C° 0.1 mm 4 mps 756 mmHg 68%
    10:00 +34°C° 0.1 mm 5 mps 756 mmHg 59%
    11:00 +35°C° 0 mm 5 mps 755 mmHg 55%
    12:00 +35°C° 0 mm 5 mps 754 mmHg 51%
    13:00 +36°C° 0 mm 5 mps 754 mmHg 48%
    14:00 +36°C° 0 mm 5 mps 753 mmHg 50%
    15:00 +35°C° 0 mm 6 mps 753 mmHg 52%
    16:00 +34°C° 0 mm 6 mps 753 mmHg 54%
    17:00 +32°C° 0 mm 5 mps 753 mmHg 63%
    18:00 +29°C° 0 mm 5 mps 754 mmHg 72%
    19:00 +27°C° 0 mm 5 mps 754 mmHg 80%
    20:00 +27°C° 0.1 mm 4 mps 755 mmHg 83%
    21:00 +27°C° 0.1 mm 4 mps 755 mmHg 87%
    22:00 +26°C° 0.1 mm 4 mps 755 mmHg 90%
    23:00 +26°C° 0.2 mm 4 mps 755 mmHg 90%

    23 November, Friday

    Time Temperature Precipitation Wind Pressure Humidity
    00:00 +26°C° 0.2 mm 4 mps 755 mmHg 90%
    01:00 +26°C° 0.2 mm 3 mps 754 mmHg 91%
    02:00 +26°C° 0.1 mm 3 mps 754 mmHg 91%
    03:00 +26°C° 0.1 mm 3 mps 754 mmHg 91%
    04:00 +26°C° 0.1 mm 3 mps 754 mmHg 91%
    05:00 +27°C° 0 mm 3 mps 755 mmHg 87%
    06:00 +27°C° 0 mm 3 mps 755 mmHg 82%
    07:00 +28°C° 0 mm 3 mps 755 mmHg 78%
    08:00 +30°C° 0 mm 3 mps 755 mmHg 71%
    09:00 +32°C° 0 mm 4 mps 755 mmHg 63%
    10:00 +34°C° 0 mm 4 mps 755 mmHg 56%
    11:00 +35°C° 0 mm 4 mps 755 mmHg 52%
    12:00 +36°C° 0 mm 4 mps 754 mmHg 49%
    13:00 +36°C° 0 mm 5 mps 753 mmHg 46%
    14:00 +36°C° 0 mm 5 mps 752 mmHg 49%
    15:00 +35°C° 0 mm 5 mps 752 mmHg 53%
    16:00 +34°C° 0 mm 5 mps 752 mmHg 56%
    17:00 +33°C° 0 mm 5 mps 752 mmHg 65%
    18:00 +30°C° 0 mm 5 mps 753 mmHg 74%
    19:00 +28°C° 0 mm 5 mps 754 mmHg 84%
    20:00 +28°C° 0 mm 4 mps 754 mmHg 86%
    21:00 +27°C° 0 mm 4 mps 754 mmHg 87%
    22:00 +27°C° 0 mm 4 mps 755 mmHg 89%
    23:00 +27°C° 0 mm 3 mps 754 mmHg 90%
    Show more